Find Starlink 4793

NORAD ID: 53867 Int'l Des: 2022-114 Owner: SPXS Country: US Constellation: starlink operational
LEOCIRCULAR

Current View

Loading 3D Globe...

About Starlink 4793

Description loading...

Upcoming Passes

Passes for default location (London). Set your location on the main map for personalized predictions.

Altitude History

Loading altitude history...

Two-Line Element Set

1 53867U 22114BB 26151.16668980 -.00611076 00000-0 -23024-1 0 9993
2 53867 53.2175 258.0700 0001035 72.1108 24.8329 15.28868189 5834
Epoch: May 31, 2026 • Age: 12 hours

Current Status

Altitude 490.9 km
Velocity 7.62 km/s
Sub-Earth Point -30.69°S, 101.01°E
Launch Date Sep 19, 2022
Age 3.6 years
Type internet

Technical Details

Classification Payload
Mass 305.00 kg
Dry Mass 290.00 kg
Total Mass 305.00 kg
Length 0.20 m
Diameter 2.80 m
Span 9.00 m
Shape Box + pan
Manufacturer SPXS
Bus Type Starlink
Phase Status In Orbit
Owner/State SPXS/US

Most Searched